Sussex, NJ

1:50 PM EDT on April 25, 2017 (GMT -0400)
Sussex

Weather History for KFWN - May, 2012

Change the Weather History Date:

Monday, May 7, 2012

  Actual Average Record
Temperature  
Mean Temperature 55 °F -  
Max Temperature 66 °F 68 °F 88 °F (1949)
Min Temperature 46 °F 40 °F 26 °F (1968)
Degree Days  
Heating Degree Days 10    
Growing Degree Days 5 (Base 50)    
Moisture  
Dew Point 48 °F    
Average Humidity 76    
Maximum Humidity 94    
Minimum Humidity 52    
Precipitation  
Precipitation 0.06 in - - ()
Sea Level Pressure  
Sea Level Pressure 30.09 in    
Wind  
Wind Speed 1 mph (SW)    
Max Wind Speed 8 mph    
Max Gust Speed -    
Visibility 10 miles    
Events Rain    
Averages and records for this station are not official NWS values.
T = Trace of Precipitation, MM = Missing Value Source: NWS Daily Summary

Daily Weather History Graph

Daily Weather History Graph

Search for Another Location

Airport or City:

Trip Planner

Search our weather history database for the weather conditions in past years. The results will help you decide how hot, cold, wet, or windy it might be!

Date:

Astronomy

May. 07, 2012 Rise Set
Actual Time 5:48 AM EDT 8:02 PM EDT
Civil Twilight 5:17 AM EDT 8:33 PM EDT
Nautical Twilight 4:39 AM EDT 9:11 PM EDT
Astronomical Twilight 3:58 AM EDT 9:52 PM EDT
Moon 10:12 PM EDT (5/7) 6:50 AM EDT (5/7)
Length of Visible Light 15h 15m
Length of Day
14h 14m
Waning Gibbous, 97% of the Moon is Illuminated
May 7
Waning Gibbous
May 12
Last Quarter
May 20
New
May 28
First Quarter
Jun 4
Full

Hourly Weather History & Observations

Time (EDT) Temp. Dew Point Humidity Pressure Visibility Wind Dir Wind Speed Gust Speed Precip Events Conditions
12:53 AM 53.1 °F 45.0 °F 74% 30.08 in 10.0 mi Calm Calm - N/A   Overcast
1:53 AM 51.1 °F 44.1 °F 77% 30.09 in 10.0 mi Calm Calm - N/A   Partly Cloudy
2:53 AM 48.9 °F 45.0 °F 86% 30.09 in 10.0 mi Calm Calm - N/A   Clear
3:53 AM 46.9 °F 44.1 °F 90% 30.08 in 10.0 mi Calm Calm - N/A   Scattered Clouds
4:02 AM 46.4 °F 44.6 °F 93% 30.08 in 10.0 mi Calm Calm - N/A   Mostly Cloudy
4:53 AM 48.9 °F 46.0 °F 90% 30.09 in 10.0 mi Calm Calm - N/A   Overcast
5:53 AM 50.0 °F 46.0 °F 86% 30.09 in 10.0 mi Calm Calm - N/A   Overcast
6:53 AM 51.1 °F 46.0 °F 83% 30.10 in 10.0 mi Calm Calm - N/A   Mostly Cloudy
7:53 AM 52.0 °F 45.0 °F 77% 30.11 in 10.0 mi Calm Calm - N/A   Overcast
8:53 AM 54.0 °F 46.0 °F 75% 30.12 in 10.0 mi Calm Calm - N/A   Overcast
9:53 AM 57.9 °F 46.9 °F 67% 30.13 in 10.0 mi Calm Calm - N/A   Overcast
10:37 AM 60.8 °F 46.4 °F 59% 30.13 in 10.0 mi WSW 6.9 mph - N/A   Overcast
10:53 AM 61.0 °F 46.9 °F 60% 30.12 in 10.0 mi Variable 3.5 mph - N/A   Overcast
11:53 AM 62.1 °F 45.0 °F 53% 30.12 in 10.0 mi Variable 3.5 mph - N/A   Overcast
12:53 PM 64.0 °F 46.0 °F 52% 30.11 in 10.0 mi SW 8.1 mph - N/A   Mostly Cloudy
1:53 PM 64.0 °F 46.9 °F 54% 30.11 in 10.0 mi SSW 8.1 mph - N/A   Overcast
2:53 PM 62.1 °F 48.0 °F 60% 30.11 in 10.0 mi SW 4.6 mph - N/A   Overcast
3:53 PM 62.1 °F 48.9 °F 62% 30.10 in 10.0 mi SSW 5.8 mph - N/A   Overcast
4:53 PM 62.1 °F 48.9 °F 62% 30.09 in 10.0 mi Calm Calm - N/A   Overcast
5:53 PM 59.0 °F 54.0 °F 83% 30.09 in 10.0 mi Calm Calm - 0.02 in Rain Light Rain
6:50 PM 57.2 °F 55.4 °F 94% 30.08 in 7.0 mi Variable 4.6 mph - 0.02 in Rain Light Rain
6:53 PM 57.9 °F 54.0 °F 87% 30.09 in 7.0 mi South 4.6 mph - 0.02 in Rain Light Rain
7:53 PM 55.0 °F 51.1 °F 86% 30.07 in 10.0 mi SSW 3.5 mph - 0.02 in   Overcast
8:53 PM 55.0 °F 50.0 °F 83% 30.06 in 10.0 mi Variable 3.5 mph - N/A   Overcast
9:43 PM 55.4 °F 51.8 °F 88% 30.07 in 10.0 mi Calm Calm - N/A   Overcast
9:53 PM 55.0 °F 51.1 °F 86% 30.08 in 10.0 mi Calm Calm - N/A   Overcast
10:53 PM 54.0 °F 48.0 °F 80% 30.07 in 10.0 mi SW 3.5 mph - N/A   Overcast
11:53 PM 54.0 °F 48.0 °F 80% 30.06 in 10.0 mi Calm Calm - N/A   Overcast